THA602 VTBS-VHHH

Flight info

Callsign THA602
Flight time N/A
Altitude 39000
Route SELKA1E SELKA A1 SANOT Y15 GUROK A202 VILAO/K0880F390 A202 ASSAD/K0880S1190 A202 SAMAS/K0702S0630 A202 SIKOU/N0476F390 V571 CANTO
Aircraft B772/H-SDE2E3FGHIJ5LORVWXY/LB1D1

Departure

Time N/A
Airport Suvarnabhumi Airport (VTBS)

Arrival

Time 2026-05-04 14:59
Airport Hong Kong International Airport (VHHH)
Time Latitude Longitude Altitude Speed Heading
2026-05-04 13:26 15.84760 104.09190 38890 ft 492 kts 20°
2026-05-04 13:27 15.91048 104.11970 38893 ft 492 kts 20°
2026-05-04 13:27 15.97338 104.14753 38902 ft 491 kts 20°
2026-05-04 13:28 16.03547 104.17757 38893 ft 495 kts 28°
2026-05-04 13:28 16.09044 104.22056 38889 ft 493 kts 40°
2026-05-04 13:29 16.13785 104.27303 38902 ft 500 kts 47°
2026-05-04 13:29 16.18358 104.32791 38917 ft 504 kts 46°
2026-05-04 13:30 16.23052 104.38214 38910 ft 506 kts 45°
2026-05-04 13:30 16.27799 104.43627 38917 ft 506 kts 46°
2026-05-04 13:31 16.32498 104.49073 38917 ft 506 kts 46°
2026-05-04 13:31 16.37184 104.54539 38925 ft 505 kts 46°
2026-05-04 13:32 16.41865 104.59993 38934 ft 505 kts 46°
2026-05-04 13:32 16.46542 104.65438 38935 ft 504 kts 46°
2026-05-04 13:33 16.51213 104.70881 38933 ft 504 kts 46°
2026-05-04 13:33 16.55848 104.76360 38942 ft 504 kts 49°
2026-05-04 13:34 16.59847 104.82375 38948 ft 506 kts 56°
2026-05-04 13:34 16.63598 104.88583 38945 ft 506 kts 56°
2026-05-04 13:35 16.69271 104.97875 38950 ft 507 kts 55°
2026-05-04 13:36 16.73085 105.04056 38946 ft 507 kts 55°
2026-05-04 13:36 16.76872 105.10200 38951 ft 507 kts 55°
2026-05-04 13:37 16.80681 105.16392 38951 ft 507 kts 56°
2026-05-04 13:37 16.84489 105.22588 38956 ft 507 kts 56°
2026-05-04 13:38 16.88289 105.28779 38955 ft 507 kts 56°
2026-05-04 13:38 16.92090 105.34988 38957 ft 507 kts 56°
2026-05-04 13:39 16.95883 105.41191 38963 ft 507 kts 56°
2026-05-04 13:39 16.99672 105.47394 38963 ft 506 kts 56°
2026-05-04 13:40 17.03456 105.53593 38967 ft 506 kts 56°
2026-05-04 13:40 17.07235 105.59789 38973 ft 505 kts 56°
2026-05-04 13:41 17.11011 105.65984 38979 ft 505 kts 56°
2026-05-04 13:41 17.14783 105.72182 38985 ft 505 kts 56°
2026-05-04 13:42 17.20442 105.81488 38996 ft 506 kts 56°
2026-05-04 13:42 17.24215 105.87699 39009 ft 506 kts 56°
2026-05-04 13:43 17.27983 105.93911 39018 ft 506 kts 56°
2026-05-04 13:43 17.31755 106.00131 39024 ft 506 kts 56°
2026-05-04 13:44 17.35523 106.06353 39031 ft 506 kts 56°
2026-05-04 13:44 17.39277 106.12517 39037 ft 505 kts 55°
2026-05-04 13:45 17.43085 106.18692 39036 ft 505 kts 55°
2026-05-04 13:45 17.46889 106.24865 39045 ft 505 kts 55°
2026-05-04 13:46 17.50687 106.31050 39041 ft 505 kts 55°
2026-05-04 13:46 17.54483 106.37242 39040 ft 505 kts 55°
2026-05-04 13:47 17.58280 106.43440 39038 ft 505 kts 55°
2026-05-04 13:47 17.62075 106.49640 39035 ft 506 kts 55°
2026-05-04 13:48 17.65870 106.55848 39032 ft 506 kts 55°
2026-05-04 13:48 17.69665 106.62060 39028 ft 506 kts 55°
2026-05-04 13:49 17.73454 106.68283 39026 ft 506 kts 55°
2026-05-04 13:49 17.77239 106.74509 39027 ft 506 kts 55°
2026-05-04 13:50 17.81027 106.80744 39021 ft 507 kts 55°
2026-05-04 13:50 17.84788 106.86941 39021 ft 507 kts 55°
2026-05-04 13:51 17.88572 106.93179 39023 ft 506 kts 55°
2026-05-04 13:51 17.92373 106.99395 39020 ft 506 kts 55°
2026-05-04 13:52 17.98090 107.08715 39028 ft 506 kts 55°
2026-05-04 13:53 18.01889 107.14928 39035 ft 504 kts 55°
2026-05-04 13:53 18.04825 107.20141 39273 ft 497 kts 57°
2026-05-04 13:54 18.08683 107.26286 39112 ft 509 kts 53°
2026-05-04 13:54 18.10651 107.29381 39074 ft 509 kts 54°
2026-05-04 13:55 18.16405 107.38751 39024 ft 507 kts 55°
2026-05-04 13:55 18.22061 107.48117 39020 ft 504 kts 55°
2026-05-04 13:56 18.25827 107.54343 39026 ft 504 kts 55°
2026-05-04 13:57 18.31463 107.63664 39020 ft 504 kts 55°
2026-05-04 13:58 18.39791 107.75450 39015 ft 502 kts 47°
2026-05-04 13:58 18.46549 107.83892 39018 ft 503 kts 47°
2026-05-04 13:59 18.51031 107.89567 39022 ft 504 kts 47°
2026-05-04 14:00 18.57745 107.98125 39012 ft 506 kts 48°
2026-05-04 14:00 18.64470 108.06708 39018 ft 506 kts 47°
2026-05-04 14:01 18.68960 108.12440 39015 ft 507 kts 47°
2026-05-04 14:02 18.75689 108.21043 39017 ft 507 kts 48°
2026-05-04 14:02 18.80146 108.26746 39005 ft 507 kts 47°
2026-05-04 14:03 18.84628 108.32488 39007 ft 506 kts 48°
2026-05-04 14:03 18.89105 108.38228 38998 ft 506 kts 48°
2026-05-04 14:04 18.95815 108.46842 39008 ft 506 kts 47°
2026-05-04 14:04 19.00286 108.52588 39009 ft 507 kts 47°
2026-05-04 14:05 19.06998 108.61225 39023 ft 507 kts 48°
2026-05-04 14:06 19.11478 108.66996 39014 ft 508 kts 48°
2026-05-04 14:06 19.15960 108.72776 39022 ft 508 kts 48°
2026-05-04 14:07 19.20440 108.78560 39015 ft 509 kts 47°
2026-05-04 14:07 19.24925 108.84354 39024 ft 509 kts 47°
2026-05-04 14:08 19.29422 108.90153 39010 ft 509 kts 47°
2026-05-04 14:08 19.33919 108.95941 39037 ft 510 kts 47°
2026-05-04 14:09 19.40672 109.04651 39037 ft 510 kts 47°
2026-05-04 14:10 19.47424 109.13377 39025 ft 510 kts 47°
2026-05-04 14:10 19.51923 109.19197 39028 ft 511 kts 47°
2026-05-04 14:11 19.56401 109.25046 39021 ft 511 kts 47°
2026-05-04 14:11 19.63086 109.33859 39027 ft 511 kts 47°
2026-05-04 14:12 19.67542 109.39733 39026 ft 511 kts 47°
2026-05-04 14:13 19.74202 109.48512 39028 ft 511 kts 47°
2026-05-04 14:13 19.78659 109.54396 39037 ft 511 kts 47°
2026-05-04 14:14 19.83114 109.60281 39032 ft 511 kts 47°
2026-05-04 14:14 19.89783 109.69106 39038 ft 510 kts 47°
2026-05-04 14:15 19.98655 109.80862 39038 ft 509 kts 47°
2026-05-04 14:16 20.05298 109.89682 39043 ft 509 kts 47°
2026-05-04 14:17 20.11935 109.98506 39044 ft 509 kts 47°
2026-05-04 14:18 20.18569 110.07341 39045 ft 510 kts 47°
2026-05-04 14:19 20.27421 110.19152 39042 ft 510 kts 47°
2026-05-04 14:19 20.31853 110.25057 39047 ft 511 kts 47°
2026-05-04 14:20 20.36309 110.30886 39044 ft 511 kts 46°
2026-05-04 14:20 20.40798 110.36753 39045 ft 511 kts 47°
2026-05-04 14:21 20.47499 110.45592 39043 ft 512 kts 50°
2026-05-04 14:21 20.51227 110.52103 39048 ft 517 kts 60°
2026-05-04 14:22 20.53923 110.59242 39050 ft 520 kts 68°
2026-05-04 14:22 20.56288 110.66533 39043 ft 520 kts 69°
2026-05-04 14:23 20.59908 110.77438 39043 ft 519 kts 68°
2026-05-04 14:24 20.62353 110.84694 39040 ft 519 kts 68°
2026-05-04 14:24 20.64786 110.91944 39044 ft 519 kts 68°
2026-05-04 14:25 20.67233 110.99195 39043 ft 519 kts 68°
2026-05-04 14:25 20.70889 111.10015 39045 ft 519 kts 68°
2026-05-04 14:26 20.73334 111.17274 39051 ft 519 kts 68°
2026-05-04 14:26 20.75772 111.24530 39047 ft 519 kts 68°
2026-05-04 14:27 20.78208 111.31791 39050 ft 519 kts 68°
2026-05-04 14:27 20.80639 111.39047 39050 ft 519 kts 68°
2026-05-04 14:28 20.83069 111.46312 39054 ft 519 kts 68°
2026-05-04 14:28 20.85503 111.53576 39055 ft 519 kts 68°
2026-05-04 14:29 20.90364 111.67929 39052 ft 519 kts 68°
2026-05-04 14:30 20.92818 111.75199 39052 ft 519 kts 68°
2026-05-04 14:31 20.96490 111.86108 39049 ft 520 kts 68°
2026-05-04 14:32 21.01376 112.00668 39051 ft 520 kts 68°
2026-05-04 14:32 21.03799 112.07906 39053 ft 520 kts 68°
2026-05-04 14:33 21.06235 112.15191 38932 ft 522 kts 68°
2026-05-04 14:33 21.07470 112.18887 38188 ft 529 kts 68°
2026-05-04 14:33 21.08704 112.22585 37488 ft 527 kts 69°
2026-05-04 14:33 21.09933 112.26276 36792 ft 526 kts 69°
2026-05-04 14:34 21.11161 112.29965 36281 ft 522 kts 69°
2026-05-04 14:34 21.12374 112.33613 35827 ft 518 kts 69°
2026-05-04 14:34 21.13576 112.37230 35346 ft 514 kts 69°
2026-05-04 14:34 21.14771 112.40827 34860 ft 511 kts 69°
2026-05-04 14:35 21.15960 112.44407 34378 ft 508 kts 69°
2026-05-04 14:35 21.17140 112.47965 33865 ft 506 kts 69°
2026-05-04 14:35 21.18272 112.51378 33357 ft 503 kts 69°
2026-05-04 14:35 21.19439 112.54900 32860 ft 500 kts 69°
2026-05-04 14:36 21.20598 112.58403 32375 ft 497 kts 69°
2026-05-04 14:36 21.21749 112.61882 31896 ft 494 kts 69°
2026-05-04 14:36 21.22891 112.65338 31414 ft 491 kts 69°
2026-05-04 14:36 21.24028 112.68781 30962 ft 488 kts 69°
2026-05-04 14:37 21.25153 112.72192 30474 ft 486 kts 69°
2026-05-04 14:37 21.26279 112.75606 29956 ft 484 kts 69°
2026-05-04 14:37 21.27396 112.78999 29380 ft 480 kts 69°
2026-05-04 14:37 21.28503 112.82362 28842 ft 476 kts 69°
2026-05-04 14:38 21.29600 112.85697 28306 ft 472 kts 69°
2026-05-04 14:38 21.30686 112.89002 27798 ft 468 kts 70°
2026-05-04 14:38 21.31762 112.92277 27290 ft 464 kts 70°
2026-05-04 14:38 21.32829 112.95529 26795 ft 460 kts 70°
2026-05-04 14:39 21.33886 112.98754 26285 ft 457 kts 70°
2026-05-04 14:39 21.34935 113.01959 25800 ft 454 kts 70°
2026-05-04 14:39 21.35977 113.05142 25275 ft 451 kts 70°
2026-05-04 14:40 21.38041 113.11453 24279 ft 446 kts 70°
2026-05-04 14:40 21.39066 113.14579 23787 ft 443 kts 70°
2026-05-04 14:40 21.40086 113.17688 23222 ft 441 kts 70°
2026-05-04 14:40 21.41099 113.20778 22685 ft 437 kts 70°
2026-05-04 14:41 21.42100 113.23834 22205 ft 432 kts 70°
2026-05-04 14:41 21.42759 113.25848 21878 ft 430 kts 70°
2026-05-04 14:41 21.44720 113.31846 20923 ft 422 kts 70°
2026-05-04 14:42 21.46642 113.37736 19993 ft 415 kts 70°
2026-05-04 14:42 21.47593 113.40652 19526 ft 412 kts 70°
2026-05-04 14:42 21.48537 113.43546 19056 ft 410 kts 70°
2026-05-04 14:43 21.49478 113.46435 18586 ft 408 kts 70°
2026-05-04 14:43 21.50400 113.49304 18079 ft 406 kts 70°
2026-05-04 14:43 21.51312 113.52169 17581 ft 403 kts 70°
2026-05-04 14:43 21.52235 113.54993 17097 ft 398 kts 67°
2026-05-04 14:44 21.53469 113.57627 16626 ft 393 kts 57°
2026-05-04 14:44 21.55035 113.60008 16183 ft 388 kts 49°
2026-05-04 14:44 21.56871 113.62106 15714 ft 383 kts 42°
2026-05-04 14:44 21.58779 113.64076 15266 ft 380 kts 41°
2026-05-04 14:45 21.60678 113.66036 14810 ft 377 kts 42°
2026-05-04 14:45 21.62553 113.67999 14336 ft 375 kts 42°
2026-05-04 14:45 21.64408 113.69960 13890 ft 373 kts 43°
2026-05-04 14:45 21.66268 113.71899 13374 ft 371 kts 41°
2026-05-04 14:46 21.68165 113.73758 12895 ft 367 kts 40°
2026-05-04 14:46 21.70064 113.75584 12441 ft 364 kts 40°
2026-05-04 14:46 21.71937 113.77396 11984 ft 361 kts 40°
2026-05-04 14:46 21.73794 113.79208 11526 ft 358 kts 40°
2026-05-04 14:47 21.75629 113.81005 11089 ft 356 kts 40°
2026-05-04 14:47 21.77441 113.82781 10727 ft 351 kts 40°
2026-05-04 14:47 21.79237 113.84537 10350 ft 346 kts 41°
2026-05-04 14:47 21.80987 113.86249 9985 ft 342 kts 41°
2026-05-04 14:48 21.82759 113.87930 9726 ft 321 kts 34°
2026-05-04 14:48 21.84656 113.88884 9349 ft 295 kts
2026-05-04 14:48 21.86670 113.89009 9023 ft 284 kts 352°
2026-05-04 14:48 21.88596 113.88625 8802 ft 284 kts 338°
2026-05-04 14:49 21.90380 113.87814 8647 ft 273 kts 332°
2026-05-04 14:49 21.92061 113.86957 8553 ft 263 kts 331°
2026-05-04 14:49 21.93685 113.86121 8426 ft 255 kts 331°
2026-05-04 14:49 21.95273 113.85309 8219 ft 251 kts 331°
2026-05-04 14:50 21.96851 113.84507 7941 ft 250 kts 331°
2026-05-04 14:50 21.98426 113.83711 7629 ft 250 kts 332°
2026-05-04 14:50 22.00004 113.82918 7317 ft 250 kts 332°
2026-05-04 14:50 22.01576 113.82130 7019 ft 244 kts 332°
2026-05-04 14:51 22.03104 113.81368 6405 ft 242 kts 332°
2026-05-04 14:51 22.04664 113.80588 5963 ft 249 kts 333°
2026-05-04 14:51 22.06229 113.79809 5761 ft 246 kts 333°
2026-05-04 14:51 22.07774 113.79039 5522 ft 244 kts 333°
2026-05-04 14:52 22.09313 113.78271 5289 ft 242 kts 333°
2026-05-04 14:52 22.10840 113.77510 5091 ft 243 kts 333°
2026-05-04 14:52 22.12377 113.76743 4853 ft 244 kts 333°
2026-05-04 14:52 22.13920 113.75973 4594 ft 244 kts 334°
2026-05-04 14:53 22.15456 113.75206 4351 ft 243 kts 334°
2026-05-04 14:53 22.16987 113.74442 4101 ft 242 kts 335°
2026-05-04 14:53 22.18509 113.73682 3859 ft 241 kts 335°
2026-05-04 14:53 22.20027 113.72925 3626 ft 240 kts 336°
2026-05-04 14:54 22.21546 113.72165 3381 ft 240 kts 337°
2026-05-04 14:54 22.23096 113.71792 3083 ft 219 kts
2026-05-04 14:54 22.24433 113.72309 2869 ft 195 kts 34°
2026-05-04 14:54 22.25481 113.73158 2709 ft 186 kts 43°
2026-05-04 14:55 22.26461 113.74061 2540 ft 182 kts 44°
2026-05-04 14:55 22.27413 113.74945 2377 ft 179 kts 44°
2026-05-04 14:55 22.28152 113.75942 2158 ft 162 kts 70°
2026-05-04 14:55 22.28514 113.77011 2024 ft 144 kts 71°
2026-05-04 14:56 22.28852 113.77974 1883 ft 130 kts 72°
2026-05-04 14:56 22.29146 113.78864 1785 ft 124 kts 73°
2026-05-04 14:56 22.29418 113.79715 1611 ft 120 kts 73°
2026-05-04 14:56 22.29691 113.80569 1551 ft 123 kts 72°
2026-05-04 14:57 22.29972 113.81446 1317 ft 122 kts 72°
2026-05-04 14:57 22.30250 113.82295 1138 ft 119 kts 72°
2026-05-04 14:57 22.30521 113.83155 1012 ft 123 kts 72°
2026-05-04 14:57 22.30801 113.84039 905 ft 127 kts 72°
2026-05-04 14:58 22.31096 113.84931 712 ft 127 kts 72°
2026-05-04 14:58 22.31383 113.85824 524 ft 121 kts 72°
2026-05-04 14:58 22.31665 113.86705 378 ft 128 kts 72°
2026-05-04 14:58 22.31957 113.87602 210 ft 127 kts 73°
2026-05-04 14:59 22.32240 113.88476 56 ft 114 kts 74°
2026-05-04 14:59 22.32469 113.89174 41 ft 77 kts 71°
2026-05-04 14:59 22.32646 113.89725 42 ft 31 kts 72°
2026-05-04 15:00 22.32699 113.89915 42 ft 31 kts 77°
2026-05-04 15:00 22.32693 113.90139 42 ft 30 kts 101°
2026-05-04 15:00 22.32642 113.90348 42 ft 22 kts 135°
2026-05-04 15:01 22.32363 113.90467 41 ft 22 kts 160°
2026-05-04 15:01 22.32220 113.90521 41 ft 22 kts 160°
2026-05-04 15:01 22.32079 113.90576 41 ft 22 kts 160°
2026-05-04 15:01 22.31936 113.90628 41 ft 22 kts 162°
2026-05-04 15:02 22.31793 113.90679 42 ft 22 kts 161°
2026-05-04 15:02 22.31651 113.90735 41 ft 22 kts 156°
2026-05-04 15:02 22.31626 113.90877 42 ft 22 kts 70°
2026-05-04 15:02 22.31676 113.91031 42 ft 22 kts 71°
2026-05-04 15:03 22.31725 113.91185 42 ft 22 kts 71°
2026-05-04 15:03 22.31775 113.91338 42 ft 22 kts 71°
2026-05-04 15:03 22.31824 113.91492 41 ft 22 kts 71°
2026-05-04 15:03 22.31873 113.91645 42 ft 22 kts 71°
2026-05-04 15:04 22.31923 113.91799 42 ft 22 kts 71°
2026-05-04 15:04 22.31972 113.91953 42 ft 22 kts 70°
2026-05-04 15:04 22.32022 113.92105 42 ft 22 kts 70°
2026-05-04 15:04 22.32073 113.92259 42 ft 22 kts 70°
2026-05-04 15:05 22.32123 113.92412 42 ft 22 kts 71°
2026-05-04 15:05 22.32172 113.92566 41 ft 22 kts 71°
2026-05-04 15:05 22.32143 113.92698 41 ft 19 kts 152°
2026-05-04 15:05 22.32020 113.92747 40 ft 19 kts 160°
2026-05-04 15:06 22.31897 113.92796 41 ft 19 kts 160°
2026-05-04 15:06 22.31798 113.92836 41 ft 14 kts 158°
2026-05-04 15:06 22.31765 113.92837 41 ft 3 kts 235°
2026-05-04 15:07 22.31723 113.92607 41 ft 19 kts 250°
2026-05-04 15:07 22.31669 113.92491 41 ft 16 kts 210°
2026-05-04 15:07 22.31595 113.92537 41 ft 13 kts 121°
2026-05-04 15:07 22.31565 113.92576 41 ft 3 kts 159°
2026-05-04 15:08 22.31542 113.92579 41 ft 5 kts 182°
2026-05-04 15:08 22.31503 113.92568 41 ft 5 kts 199°
2026-05-04 15:08 22.31481 113.92558 41 ft 1 kts 204°
2026-05-04 15:08 22.31472 113.92553 41 ft 1 kts 205°
2026-05-04 15:09 22.31468 113.92551 41 ft 0 kts 205°